User: anonymous   Login
Location: Unspecified
(0.0000°N, 0.0000°E)
Time: 00:24:54
(UTC+00:00)
Language:

NOSS 8 (H) - Orbit

View from above orbital plane
View from above orbital plane
View from above satellite
View from above satellite

Ground track
Ground track

The orbit data is extracted from the following two-line orbital elements,

1 18025U 87043H   19292.78217826  .00000167  00000-0  33521-4 0  9994
2 18025  63.3078  50.8292 0924778  56.0421 312.5047 13.45407682 21056
Epoch (UTC): 19 October 2019 18:46:20
Eccentricity: 0.0924778
inclination: 63.3078°
perigee height: 398 km
apogee height: 1780 km
right ascension of ascending node: 50.8292°
argument of perigee: 56.0421°
revolutions per day: 13.45407682
mean anomaly at epoch: 312.5047°
orbit number at epoch: 2105

The dashed part of the orbit path shows where the satellite is in the earth's shadow,  

DLR